User: anonymous   Login
Location: Caltech
(34.1382°N, 118.1253°W)
Time: 18:18:28
(UTC-08:00)
Language:

NOSS 3-4 (C) - Orbit

View from above orbital plane
View from above orbital plane
View from above satellite
View from above satellite

Ground track
Ground track

The orbit data is extracted from the following two-line orbital elements,

1 31708U 07027C   17335.24071300 0.00000000  00000-0  00000-0 0    04
2 31708  63.4021  17.7144 0207000  22.5837 337.4163 13.40739399    02
Epoch (UTC): 01 December 2017 05:46:37
Eccentricity: 0.0207000
inclination: 63.4021°
perigee height: 951 km
apogee height: 1261 km
right ascension of ascending node: 17.7144°
argument of perigee: 22.5837°
revolutions per day: 13.40739399
mean anomaly at epoch: 337.4163°
orbit number at epoch: 0

The dashed part of the orbit path shows where the satellite is in the earth's shadow,  

DLR